Home > Weather > Campeche > Past weeks

Flag for Mexico Past Weather in Campeche, Campeche, Mexico — Yesterday and Last 2 Weeks

Now
86 °F

Broken clouds.


Feels Like: 99 °F
Forecast: 80 / 93 °F
Wind: 13 mph from Southeast

Location: Aerop. Internacional Merida - Yuc

Current Time: Jul 1, 2016 at 10:24:50 AM

Latest Report: Jul 1, 2016 at 9:46 AM


Visibility: 7 mi

Pressure: 29.97 "Hg

Humidity: 79%

Dew Point: 79 °F

Location of CampecheLocation

Past Weather in Campeche — Graph

°F

Campeche Temperature Yesterday

Maximum temperature yesterday: 95 °F (at 4:51 PM)
Minimum temperature yesterday: 75 °F (at 3:51 AM)
Average temperature yesterday: 82 °F

High & Low Weather Summary for the Past Weeks

 TemperatureHumidityPressure
High97 °F (Jun 16, 1:46 PM)100% (Jun 20, 5:45 AM)30.09 "Hg (Jun 20, 5:45 AM)
Low73 °F (Jun 17, 3:45 AM)39% (Jun 28, 2:49 PM)29.88 "Hg (Jun 18, 12:52 AM)
Average81 °F80%29.99 "Hg
* Reported Jun 16 8:47 AM — Jul 1 8:46 AM, Campeche, Weather by CustomWeather, © 2016

Note: Actual official high and low records may vary slightly from our data, if they occured in-between our weather recording intervals... More about our weather records

Advertising

Campeche Weather History for the Previous 24 Hours

Scroll right to see more
 ConditionsComfort  
Time TempWeatherWind HumidityBarometerVisibility
8:46 AM
Fri, Jul 1
82 °FPartly sunny.9 mph84%30.02 "Hg7 mi
6:45 AM75 °FPassing clouds.3 mph94%29.97 "Hg6 mi
5:45 AM75 °FPassing clouds.3 mph94%29.98 "Hg7 mi
4:45 AM75 °FPassing clouds.3 mph89%29.97 "Hg7 mi
3:45 AM75 °FPassing clouds.8 mph89%29.99 "Hg7 mi
2:44 AM77 °FPartly cloudy.No wind89%29.99 "Hg7 mi
1:45 AM77 °FPassing clouds.No wind89%30.01 "Hg7 mi
12:45 AM77 °FPassing clouds.3 mph89%30.04 "Hg7 mi
11:45 PM
Thu, Jun 30
77 °FPassing clouds.12 mph83%30.05 "Hg7 mi
10:45 PM81 °FPassing clouds.12 mph79%30.03 "Hg7 mi
9:46 PM84 °FPassing clouds.15 mph70%30.02 "Hg7 mi
7:48 PM84 °FBroken clouds.5 mph70%29.96 "Hg7 mi
5:53 PM90 °FBroken clouds.15 mph63%29.92 "Hg7 mi
4:51 PM95 °FScattered clouds.8 mph39%29.91 "Hg7 mi
1:48 PM93 °FBroken clouds.7 mph44%29.95 "Hg7 mi
11:49 AM91 °FScattered clouds.5 mph52%29.97 "Hg7 mi
10:45 AM88 °FScattered clouds.5 mph62%29.99 "Hg7 mi
Weather by CustomWeather, © 2016

See weather overviewHow to use our weather pages